QPF
0.00 0.00 0.00 0.00 0.00 0.00 0.00 0.00 0.00 0.00 0.00 0.00 0.00 0.00 0.00 0.00 0.00 0.00 0.00 0.00 0.00 0.00 0.00 0.00 0.00 0.00 0.00 0.00 0.00 0.00 0.00 0.00 0.00 0.00 0.00 0.00 0.02 0.03 0.03 0.07 0.11 0.16 0.11
0.00 0.00 0.00 0.00 0.00 0.00 0.00 0.00 0.00 0.00 0.00 0.00 0.00 0.00 0.00 0.00 0.00 0.00 0.00 0.00 0.00 0.00 0.00 0.00 0.00 0.00 0.00 0.00 0.00 0.00 0.00 0.00 0.00 0.00 0.00 0.00 0.00 0.00 0.00 0.04 0.10 0.12 0.09
0.00 0.00 0.00 0.00 0.00 0.00 0.00 0.00 0.00 0.00 0.00 0.00 0.00 0.00 0.00 0.00 0.00 0.00 0.00 0.00 0.00 0.00 0.00 0.00 0.00 0.00 0.00 0.00 0.00 0.00 0.00 0.00 0.00 0.00 0.00 0.00 0.00 0.00 0.00 0.01 0.06 0.08 0.14
0.00 0.00 0.00 0.00 0.00 0.00 0.00 0.00 0.00 0.00 0.00 0.00 0.00 0.00 0.00 0.00 0.00 0.00 0.00 0.00 0.00 0.00 0.00 0.00 0.00 0.00 0.00 0.00 0.00 0.00 0.00 0.00 0.00 0.00 0.00 0.00 0.00 0.00 0.00 0.00 0.03 0.07 0.10
0.00 0.00 0.00 0.00 0.00 0.00 0.00 0.00 0.00 0.00 0.00 0.00 0.00 0.00 0.00 0.00 0.00 0.00 0.00 0.00 0.00 0.00 0.00 0.00 0.00 0.00 0.00 0.00 0.00 0.00 0.00 0.00 0.00 0.00 0.00 0.00 0.00 0.00 0.00 0.00 0.00 0.03 0.05
0.00 0.00 0.00 0.00 0.00 0.00 0.00 0.00 0.00 0.00 0.00 0.00 0.00 0.00 0.00 0.00 0.00 0.00 0.00 0.00 0.00 0.00 0.00 0.00 0.00 0.00 0.00 0.00 0.00 0.00 0.00 0.00 0.00 0.00 0.00 0.00 0.00 0.00 0.00 0.00 0.00 0.01 0.04
0.00 0.00 0.00 0.00 0.00 0.00 0.00 0.00 0.00 0.00 0.00 0.00 0.00 0.00 0.00 0.00 0.00 0.00 0.00 0.00 0.00 0.00 0.00 0.00 0.00 0.00 0.00 0.00 0.00 0.00 0.00 0.00 0.00 0.00 0.00 0.00 0.00 0.00 0.00 0.00 0.01 0.01 0.01
0.00 0.00 0.00 0.00 0.00 0.00 0.00 0.00 0.00 0.00 0.00 0.00 0.00 0.00 0.00 0.00 0.00 0.00 0.00 0.00 0.00 0.00 0.00 0.00 0.00 0.00 0.00 0.00 0.00 0.00 0.00 0.00 0.00 0.00 0.00 0.00 0.00 0.00 0.00 0.01 0.01 0.01 0.01
0.00 0.00 0.00 0.00 0.00 0.00 0.00 0.00 0.00 0.00 0.00 0.00 0.00 0.00 0.00 0.00 0.00 0.00 0.00 0.00 0.00 0.00 0.00 0.00 0.00 0.00 0.00 0.00 0.00 0.00 0.00 0.00 0.00 0.00 0.00 0.00 0.00 0.01 0.01 0.01 0.01 0.00 0.00
0.00 0.00 0.00 0.00 0.00 0.00 0.00 0.00 0.00 0.00 0.00 0.00 0.00 0.00 0.00 0.00 0.00 0.00 0.00 0.00 0.00 0.00 0.00 0.00 0.00 0.00 0.00 0.00 0.00 0.00 0.00 0.00 0.00 0.00 0.00 0.00 0.00 0.00 0.01 0.03 0.03 0.02 0.01
0.00 0.00 0.00 0.00 0.00 0.00 0.00 0.00 0.00 0.00 0.00 0.00 0.00 0.00 0.00 0.00 0.00 0.00 0.00 0.00 0.00 0.00 0.00 0.00 0.00 0.00 0.00 0.00 0.00 0.00 0.00 0.00 0.00 0.00 0.00 0.00 0.00 0.00 0.05 0.05 0.04 0.03 0.01
0.00 0.00 0.00 0.00 0.00 0.00 0.00 0.00 0.00 0.00 0.00 0.00 0.00 0.00 0.00 0.00 0.00 0.00 0.00 0.00 0.00 0.00 0.00 0.00 0.00 0.00 0.00 0.00 0.00 0.00 0.00 0.00 0.00 0.00 0.00 0.00 0.00 0.00 0.04 0.06 0.05 0.04 0.03
0.00 0.00 0.00 0.00 0.00 0.00 0.00 0.00 0.00 0.00 0.00 0.00 0.00 0.00 0.00 0.00 0.00 0.00 0.00 0.00 0.00 0.00 0.00 0.00 0.00 0.00 0.00 0.00 0.00 0.00 0.00 0.00 0.00 0.00 0.00 0.00 0.00 0.00 0.00 0.02 0.07 0.04 0.02
0.00 0.00 0.00 0.00 0.00 0.00 0.00 0.00 0.00 0.00 0.00 0.00 0.00 0.00 0.00 0.00 0.00 0.00 0.00 0.00 0.00 0.00 0.00 0.00 0.00 0.00 0.00 0.00 0.00 0.00 0.00 0.00 0.00 0.00 0.00 0.00 0.00 0.00 0.00 0.01 0.04 0.05 0.02
0.00 0.00 0.00 0.00 0.00 0.00 0.00 0.00 0.00 0.00 0.00 0.00 0.00 0.00 0.00 0.00 0.00 0.00 0.00 0.00 0.00 0.00 0.00 0.00 0.00 0.00 0.00 0.00 0.00 0.00 0.00 0.00 0.00 0.00 0.00 0.01 0.00 0.00 0.01 0.02 0.07 0.13 0.07
0.00 0.00 0.00 0.00 0.00 0.00 0.00 0.00 0.00 0.00 0.00 0.00 0.00 0.00 0.00 0.00 0.00 0.00 0.00 0.00 0.00 0.00 0.00 0.00 0.00 0.00 0.00 0.00 0.00 0.00 0.00 0.00 0.00 0.00 0.00 0.00 0.02 0.02 0.01 0.02 0.02 0.09 0.10
0.00 0.00 0.00 0.00 0.00 0.00 0.00 0.00 0.00 0.00 0.00 0.00 0.00 0.00 0.00 0.01 0.01 0.00 0.00 0.00 0.00 0.00 0.00 0.00 0.00 0.00 0.00 0.00 0.00 0.00 0.00 0.00 0.00 0.00 0.00 0.00 0.01 0.02 0.04 0.03 0.02 0.02 0.03
0.00 0.00 0.00 0.00 0.00 0.00 0.00 0.00 0.00 0.00 0.00 0.00 0.00 0.00 0.00 0.02 0.01 0.01 0.01 0.00 0.00 0.00 0.00 0.00 0.00 0.00 0.00 0.00 0.00 0.03 0.03 0.01 0.00 0.00 0.00 0.00 0.01 0.03 0.01 0.01 0.02 0.01 0.01
0.00 0.00 0.00 0.00 0.00 0.00 0.00 0.00 0.00 0.00 0.00 0.00 0.00 0.00 0.00 0.01 0.01 0.05 0.12 0.06 0.00 0.00 0.00 0.00 0.00 0.00 0.04 0.05 0.01 0.00 0.00 0.00 0.00 0.00 0.00 0.00 0.03 0.09 0.02 0.01 0.02 0.01 0.01
0.00 0.00 0.00 0.00 0.00 0.00 0.00 0.00 0.00 0.00 0.00 0.00 0.00 0.00 0.00 0.01 0.07 0.21 0.09 0.03 0.00 0.00 0.00 0.00 0.00 0.02 0.05 0.12 0.03 0.00 0.00 0.02 0.02 0.00 0.00 0.00 0.01 0.05 0.03 0.00 0.00 0.00 0.01
0.00 0.00 0.00 0.00 0.00 0.00 0.00 0.00 0.00 0.00 0.00 0.00 0.00 0.00 0.00 0.00 0.10 0.05 0.01 0.00 0.00 0.00 0.00 0.00 0.00 0.03 0.09 0.08 0.05 0.03 0.00 0.00 0.00 0.02 0.03 0.01 0.00 0.01 0.02 0.00 0.00 0.00 0.01
0.00 0.00 0.00 0.00 0.00 0.00 0.00 0.00 0.00 0.00 0.00 0.00 0.00 0.02 0.03 0.00 0.02 0.01 0.02 0.00 0.00 0.00 0.00 0.00 0.00 0.02 0.01 0.01 0.01 0.02 0.02 0.04 0.03 0.00 0.03 0.03 0.02 0.03 0.01 0.00 0.00 0.00 0.00
0.00 0.00 0.00 0.00 0.00 0.00 0.00 0.00 0.00 0.00 0.00 0.00 0.01 0.08 0.09 0.03 0.01 0.00 0.01 0.00 0.00 0.00 0.00 0.00 0.00 0.00 0.00 0.00 0.01 0.01 0.01 0.02 0.08 0.04 0.02 0.05 0.04 0.00 0.00 0.00 0.00 0.00 0.00
0.00 0.00 0.00 0.00 0.00 0.00 0.00 0.00 0.00 0.00 0.00 0.00 0.00 0.06 0.15 0.12 0.00 0.00 0.00 0.00 0.00 0.00 0.00 0.00 0.00 0.00 0.00 0.00 0.00 0.01 0.00 0.00 0.00 0.00 0.00 0.01 0.04 0.00 0.00 0.00 0.00 0.00 0.00
0.00 0.00 0.00 0.00 0.00 0.00 0.00 0.00 0.00 0.00 0.00 0.01 0.00 0.03 0.06 0.05 0.00 0.00 0.00 0.00 0.00 0.00 0.00 0.00 0.00 0.00 0.00 0.00 0.00 0.00 0.00 0.00 0.00 0.00 0.00 0.00 0.00 0.00 0.00 0.00 0.00 0.00 0.00
0.00 0.00 0.00 0.00 0.00 0.00 0.00 0.00 0.00 0.00 0.01 0.03 0.00 0.03 0.00 0.00 0.00 0.00 0.00 0.00 0.00 0.00 0.00 0.00 0.00 0.00 0.00 0.00 0.00 0.00 0.00 0.00 0.00 0.00 0.00 0.00 0.00 0.01 0.00 0.00 0.00 0.00 0.00
MSLP
1006.62 1006.92 1007.25 1007.81 1008.38 1008.62 1008.66 1008.75 1008.79 1008.85 1009.13 1009.39 1009.76 1009.99 1010.17 1010.48 1010.85 1011.28 1011.55 1011.73 1011.91 1012.07 1012.23 1012.32 1012.53 1012.65 1012.74 1012.82 1012.94 1013.01 1013.01 1013.07 1013.07 1013.22 1013.05 1013.09 1013.09 1012.94 1012.91 1012.86 1013.03 1013.07 1013.20
1005.34 1006.50 1007.12 1007.72 1008.19 1008.54 1008.57 1008.72 1008.79 1008.85 1009.10 1009.36 1009.72 1009.99 1010.23 1010.58 1010.89 1011.29 1011.52 1011.71 1011.82 1012.05 1012.18 1012.22 1012.39 1012.40 1012.65 1012.81 1012.99 1012.99 1013.04 1013.12 1013.26 1013.26 1013.26 1013.25 1013.30 1013.17 1012.99 1012.94 1013.04 1013.09 1013.23
1005.60 1006.41 1007.22 1007.53 1007.86 1008.24 1008.50 1008.70 1008.90 1008.88 1009.05 1009.32 1009.68 1009.91 1010.22 1010.49 1010.87 1011.25 1011.35 1011.58 1011.75 1011.91 1012.10 1012.17 1012.27 1012.45 1012.53 1012.71 1012.89 1012.99 1013.03 1013.13 1013.22 1013.26 1013.23 1013.40 1013.40 1013.23 1013.17 1013.00 1013.07 1013.16 1013.36
1005.17 1005.89 1006.68 1007.22 1007.62 1007.96 1008.16 1008.52 1008.75 1008.79 1009.08 1009.34 1009.62 1009.81 1010.09 1010.41 1010.86 1011.19 1011.36 1011.55 1011.65 1011.83 1011.98 1012.09 1012.19 1012.31 1012.46 1012.65 1012.87 1013.05 1013.02 1013.08 1013.11 1013.13 1013.31 1013.34 1013.31 1013.18 1013.18 1013.03 1013.17 1013.26 1013.39
1005.34 1005.70 1006.26 1006.69 1007.09 1007.38 1007.60 1007.93 1008.36 1008.56 1008.88 1009.24 1009.46 1009.67 1009.95 1010.33 1010.73 1011.02 1011.24 1011.47 1011.63 1011.69 1011.79 1012.02 1012.18 1012.27 1012.31 1012.44 1012.66 1012.93 1012.91 1012.99 1013.03 1013.08 1013.25 1013.25 1013.27 1012.98 1013.00 1013.03 1013.01 1013.18 1013.38
1005.29 1005.61 1005.98 1006.39 1006.67 1006.84 1007.14 1007.56 1007.77 1008.06 1008.37 1008.79 1009.16 1009.44 1009.67 1010.16 1010.57 1010.85 1011.09 1011.35 1011.57 1011.66 1011.72 1011.82 1012.04 1012.12 1012.16 1012.15 1012.40 1012.63 1012.67 1012.84 1012.94 1013.07 1013.18 1013.15 1013.05 1012.81 1012.47 1012.53 1012.80 1013.06 1013.35
1005.24 1005.64 1005.80 1006.10 1006.50 1006.78 1006.95 1007.32 1007.69 1007.97 1008.10 1008.24 1008.62 1009.11 1009.41 1009.86 1010.34 1010.60 1010.85 1011.16 1011.45 1011.71 1011.71 1011.75 1011.87 1011.98 1012.02 1012.06 1012.28 1012.47 1012.61 1012.69 1012.80 1012.99 1013.06 1013.07 1012.92 1012.75 1012.41 1012.35 1012.69 1012.94 1013.25
1004.80 1005.21 1005.61 1005.87 1006.25 1006.46 1006.77 1007.12 1007.41 1007.78 1008.06 1008.21 1008.33 1008.67 1009.11 1009.62 1010.06 1010.40 1010.62 1010.93 1011.30 1011.64 1011.83 1011.93 1011.92 1011.95 1012.02 1012.08 1012.21 1012.39 1012.51 1012.55 1012.62 1012.87 1012.95 1012.97 1012.80 1012.63 1012.54 1012.47 1012.65 1012.87 1013.15
1005.30 1005.72 1005.69 1005.63 1005.91 1006.18 1006.43 1006.91 1007.22 1007.52 1007.77 1008.25 1008.40 1008.64 1008.97 1009.41 1009.72 1010.14 1010.49 1010.72 1011.08 1011.45 1011.72 1011.69 1011.90 1011.98 1011.98 1012.03 1012.17 1012.31 1012.35 1012.38 1012.49 1012.71 1012.82 1012.90 1012.75 1012.49 1012.49 1012.61 1012.72 1012.87 1013.08
1005.20 1004.98 1005.46 1005.86 1006.00 1005.90 1006.21 1006.48 1006.87 1007.39 1007.66 1008.09 1008.45 1008.81 1009.03 1009.32 1009.72 1009.99 1010.27 1010.49 1010.80 1011.20 1011.45 1011.55 1011.78 1011.96 1012.01 1012.05 1012.14 1012.26 1012.20 1012.14 1012.32 1012.56 1012.69 1012.88 1012.83 1012.65 1012.56 1012.74 1012.83 1013.00 1013.10
1005.06 1005.31 1005.51 1005.33 1005.61 1005.72 1005.89 1006.10 1006.60 1007.10 1007.62 1007.93 1008.41 1008.88 1009.20 1009.34 1009.58 1009.91 1010.15 1010.38 1010.64 1011.02 1011.22 1011.42 1011.61 1011.81 1011.92 1011.99 1012.04 1012.10 1012.08 1012.13 1012.23 1012.44 1012.60 1012.65 1012.76 1012.75 1012.65 1012.71 1012.97 1013.04 1013.10
1004.50 1004.54 1004.77 1005.07 1004.87 1005.39 1005.58 1005.94 1006.32 1006.76 1007.22 1007.70 1008.13 1008.71 1009.08 1009.37 1009.55 1009.64 1009.92 1010.23 1010.47 1010.76 1010.98 1011.30 1011.49 1011.69 1011.85 1012.03 1012.11 1011.96 1012.00 1011.98 1012.12 1012.31 1012.38 1012.29 1012.55 1012.62 1012.60 1012.70 1012.91 1012.93 1013.02
1002.94 1003.75 1003.96 1004.29 1004.61 1004.81 1005.18 1005.46 1005.76 1006.32 1006.72 1007.23 1007.67 1008.17 1008.72 1009.20 1009.44 1009.60 1009.77 1010.10 1010.30 1010.46 1010.79 1011.08 1011.33 1011.58 1011.84 1011.96 1012.09 1012.07 1012.01 1011.94 1011.92 1012.00 1011.98 1011.97 1012.28 1012.36 1012.34 1012.31 1012.57 1012.83 1012.97
1002.49 1002.24 1002.65 1003.51 1003.94 1004.13 1004.68 1004.89 1005.19 1005.62 1006.05 1006.50 1006.76 1007.43 1008.17 1008.90 1009.37 1009.63 1009.78 1009.76 1010.02 1010.20 1010.41 1010.87 1011.19 1011.44 1011.64 1011.70 1011.87 1011.88 1011.83 1011.81 1011.70 1011.69 1011.65 1011.68 1011.81 1011.98 1012.06 1012.01 1012.31 1012.62 1012.81
1002.08 1001.68 1002.16 1002.51 1002.86 1003.17 1003.79 1004.27 1004.67 1004.75 1005.05 1005.53 1006.14 1006.50 1007.13 1008.14 1008.82 1009.25 1009.56 1009.64 1009.70 1009.87 1010.18 1010.72 1011.00 1011.30 1011.41 1011.47 1011.53 1011.63 1011.68 1011.52 1011.37 1011.44 1011.42 1011.43 1011.31 1011.47 1011.63 1011.67 1011.85 1012.45 1012.77
1000.67 1000.82 1001.02 1001.79 1001.77 1002.52 1002.85 1003.08 1003.44 1004.07 1004.29 1004.93 1005.66 1005.95 1006.43 1007.23 1008.45 1008.92 1009.23 1009.45 1009.47 1009.61 1009.86 1010.15 1010.51 1010.95 1011.09 1011.29 1011.30 1011.25 1011.30 1011.11 1011.00 1011.08 1011.12 1011.07 1011.06 1011.01 1011.10 1011.14 1011.56 1012.04 1012.52
999.75 999.72 1000.21 1000.37 1000.84 1001.64 1002.02 1002.14 1002.64 1003.01 1003.73 1004.26 1004.90 1005.39 1006.02 1006.59 1007.63 1008.30 1008.66 1008.88 1008.99 1009.19 1009.37 1009.88 1010.32 1010.59 1010.87 1011.01 1011.08 1011.02 1011.14 1010.93 1010.93 1010.86 1010.78 1010.76 1010.82 1010.59 1010.75 1011.22 1011.42 1011.69 1012.06
999.13 999.24 999.13 999.38 999.86 1000.46 1000.80 1001.38 1001.99 1002.48 1003.00 1003.62 1004.30 1004.79 1005.57 1006.23 1006.55 1007.62 1007.96 1008.18 1008.33 1008.82 1009.33 1009.75 1010.14 1010.43 1010.65 1010.91 1010.91 1010.79 1010.86 1010.92 1010.87 1010.66 1010.54 1010.59 1010.66 1010.57 1010.69 1010.96 1011.26 1011.56 1011.78
998.38 998.32 998.49 998.99 999.02 999.34 1000.19 1000.50 1001.42 1002.00 1002.58 1003.19 1003.84 1004.43 1004.96 1005.48 1005.98 1006.90 1007.69 1008.23 1008.40 1008.72 1009.18 1009.55 1010.03 1010.28 1010.59 1010.64 1010.56 1010.56 1010.68 1010.65 1010.58 1010.48 1010.47 1010.36 1010.48 1010.64 1010.67 1010.85 1011.13 1011.47 1011.64
997.75 997.69 997.79 997.99 998.34 998.81 999.79 1000.54 1001.28 1001.78 1002.26 1002.97 1003.56 1004.10 1004.57 1005.11 1006.10 1007.04 1007.77 1008.00 1008.52 1008.75 1009.19 1009.57 1009.80 1009.98 1010.23 1010.32 1010.42 1010.42 1010.33 1010.26 1010.37 1010.24 1010.19 1010.09 1010.36 1010.58 1010.66 1010.98 1011.19 1011.35 1011.44
997.21 997.21 997.11 997.43 998.07 998.71 999.57 1000.29 1001.04 1001.27 1002.04 1002.68 1003.12 1003.69 1004.14 1004.84 1005.34 1006.13 1006.94 1007.55 1008.26 1008.57 1008.82 1009.19 1009.48 1009.86 1010.08 1010.14 1010.44 1010.34 1010.16 1009.92 1009.98 1009.99 1010.09 1010.17 1010.33 1010.36 1010.57 1010.79 1011.10 1011.32 1011.35
996.69 996.55 996.67 996.80 997.31 997.79 998.55 999.05 999.85 1000.73 1001.85 1002.48 1002.97 1003.42 1003.81 1004.40 1005.39 1005.91 1006.45 1007.25 1007.87 1008.40 1008.69 1008.96 1009.37 1009.79 1009.97 1009.98 1010.26 1010.48 1010.47 1010.24 1009.72 1009.77 1009.86 1010.07 1010.22 1010.37 1010.57 1010.57 1010.73 1011.03 1011.24
996.49 996.32 996.36 996.42 996.65 997.27 998.40 999.40 1000.20 1000.95 1001.87 1002.66 1003.07 1003.41 1003.86 1004.31 1004.99 1005.50 1006.17 1006.94 1007.58 1008.06 1008.43 1008.84 1009.17 1009.43 1009.70 1009.83 1009.96 1010.25 1010.56 1010.39 1010.09 1009.68 1009.69 1009.83 1010.24 1010.30 1010.44 1010.47 1010.52 1010.71 1010.99
995.47 995.72 995.80 996.47 996.74 997.31 997.86 998.71 999.67 1000.42 1001.56 1001.97 1002.45 1003.30 1003.95 1004.44 1004.96 1005.61 1006.19 1006.87 1007.40 1007.77 1008.31 1008.49 1008.68 1008.91 1009.31 1009.72 1009.90 1009.97 1010.01 1009.91 1010.10 1010.07 1009.51 1009.78 1010.16 1010.28 1010.32 1010.44 1010.46 1010.47 1010.64
995.37 995.45 995.60 996.22 996.89 997.50 997.90 998.73 999.75 1000.60 1001.49 1002.04 1002.70 1003.39 1004.56 1004.94 1005.21 1005.76 1006.29 1006.82 1007.42 1007.67 1007.91 1008.22 1008.40 1008.68 1008.98 1009.36 1009.62 1009.77 1009.96 1009.96 1009.86 1010.08 1010.10 1010.03 1010.10 1010.26 1010.31 1010.38 1010.38 1010.45 1010.45
995.64 995.88 996.36 996.62 997.33 997.90 998.37 999.06 999.71 1000.69 1001.74 1002.60 1003.41 1004.02 1004.65 1005.16 1005.60 1006.03 1006.54 1006.95 1007.07 1007.43 1007.68 1007.87 1008.03 1008.33 1008.66 1009.03 1009.25 1009.32 1009.43 1009.74 1009.87 1010.04 1010.28 1010.36 1010.34 1010.54 1010.41 1010.45 1010.48 1010.58 1010.58
Thickness
5823 5823 5820 5814 5807 5802 5800 5796 5793 5788 5783 5779 5774 5770 5767 5761 5755 5750 5747 5745 5743 5740 5737 5735 5731 5729 5726 5725 5723 5723 5724 5724 5725 5724 5728 5727 5727 5730 5732 5735 5735 5736 5737
5836 5826 5819 5810 5804 5800 5798 5793 5791 5788 5784 5778 5772 5769 5765 5760 5755 5748 5745 5741 5738 5734 5732 5730 5727 5727 5723 5720 5717 5717 5717 5717 5717 5718 5719 5721 5722 5723 5726 5729 5732 5733 5733
5833 5824 5814 5808 5805 5800 5797 5794 5790 5787 5783 5778 5772 5768 5763 5758 5752 5746 5744 5740 5736 5732 5728 5726 5724 5720 5718 5715 5713 5711 5711 5710 5710 5711 5713 5715 5717 5719 5720 5724 5726 5728 5728
5836 5825 5816 5810 5804 5801 5798 5794 5788 5785 5780 5776 5772 5767 5762 5756 5749 5744 5741 5736 5733 5728 5724 5721 5718 5715 5713 5709 5706 5704 5705 5704 5705 5706 5706 5709 5712 5714 5715 5717 5719 5721 5723
5831 5825 5819 5812 5805 5801 5799 5794 5789 5785 5779 5774 5769 5765 5760 5754 5748 5743 5739 5734 5730 5726 5720 5715 5711 5708 5707 5705 5702 5698 5700 5700 5700 5700 5702 5704 5707 5711 5711 5711 5713 5715 5716
5827 5822 5817 5812 5809 5806 5801 5795 5791 5787 5781 5774 5768 5763 5758 5751 5745 5740 5736 5732 5726 5722 5717 5712 5707 5704 5703 5702 5699 5695 5695 5694 5694 5695 5697 5699 5702 5706 5710 5708 5709 5709 5710
5822 5817 5816 5813 5808 5803 5800 5794 5787 5782 5779 5775 5768 5761 5755 5748 5742 5737 5733 5727 5722 5717 5713 5709 5705 5701 5699 5698 5694 5691 5689 5688 5689 5690 5693 5695 5698 5701 5704 5706 5704 5705 5705
5820 5817 5814 5812 5807 5804 5799 5792 5785 5778 5773 5770 5765 5759 5753 5746 5741 5734 5729 5724 5717 5711 5707 5703 5701 5699 5696 5693 5690 5687 5685 5684 5684 5685 5687 5689 5693 5696 5698 5700 5700 5701 5701
5811 5808 5810 5809 5805 5803 5800 5791 5785 5780 5775 5768 5762 5756 5750 5744 5738 5731 5725 5721 5713 5707 5702 5700 5696 5693 5692 5690 5687 5683 5681 5680 5679 5679 5681 5683 5686 5690 5691 5692 5694 5695 5697
5804 5809 5804 5799 5796 5795 5796 5793 5786 5777 5770 5763 5757 5749 5744 5739 5733 5727 5722 5718 5711 5704 5699 5696 5692 5688 5686 5684 5682 5678 5677 5676 5675 5674 5675 5677 5678 5681 5683 5684 5686 5688 5691
5800 5799 5798 5798 5791 5787 5786 5782 5782 5776 5766 5760 5752 5744 5739 5735 5730 5724 5718 5713 5708 5701 5697 5692 5688 5684 5681 5678 5676 5674 5672 5672 5671 5670 5670 5671 5671 5673 5676 5677 5679 5681 5685
5793 5796 5795 5792 5792 5786 5784 5778 5775 5770 5763 5755 5749 5742 5736 5731 5726 5722 5716 5710 5704 5698 5694 5689 5684 5679 5676 5673 5670 5669 5668 5667 5665 5664 5665 5666 5665 5667 5669 5671 5673 5676 5679
5803 5797 5797 5794 5789 5786 5783 5777 5775 5768 5762 5754 5748 5742 5735 5728 5722 5717 5713 5707 5702 5696 5692 5685 5681 5676 5672 5668 5665 5664 5663 5662 5661 5661 5661 5661 5661 5663 5664 5668 5669 5670 5673
5800 5806 5803 5794 5788 5785 5780 5775 5773 5768 5762 5756 5751 5743 5735 5726 5719 5713 5710 5705 5699 5695 5691 5683 5678 5672 5668 5665 5661 5660 5659 5658 5658 5658 5658 5657 5658 5659 5660 5663 5664 5666 5667
5799 5802 5798 5794 5789 5785 5778 5776 5771 5769 5764 5758 5750 5745 5737 5727 5718 5711 5706 5701 5698 5694 5688 5681 5676 5670 5665 5661 5658 5657 5655 5655 5655 5654 5654 5653 5656 5657 5658 5661 5662 5662 5663
5805 5802 5801 5792 5793 5784 5780 5778 5774 5768 5765 5757 5748 5743 5736 5728 5716 5708 5702 5699 5695 5691 5685 5680 5673 5666 5661 5656 5653 5652 5651 5651 5652 5650 5648 5651 5652 5654 5656 5659 5659 5659 5660
5806 5805 5796 5796 5793 5784 5781 5778 5773 5770 5763 5756 5748 5741 5732 5727 5717 5708 5702 5697 5694 5689 5683 5675 5668 5663 5657 5652 5648 5646 5645 5645 5646 5646 5646 5649 5650 5654 5654 5654 5656 5657 5659
5801 5799 5801 5797 5794 5787 5782 5776 5770 5766 5762 5754 5747 5739 5731 5724 5719 5708 5701 5697 5693 5686 5679 5670 5662 5656 5651 5645 5641 5640 5639 5639 5640 5642 5644 5645 5646 5650 5651 5652 5653 5654 5657
5800 5802 5798 5794 5792 5788 5779 5776 5767 5762 5757 5750 5744 5737 5731 5724 5716 5707 5697 5689 5685 5681 5674 5665 5656 5649 5641 5637 5636 5634 5631 5631 5634 5637 5640 5642 5642 5644 5647 5647 5648 5651 5654
5796 5797 5796 5793 5789 5784 5774 5766 5759 5755 5753 5746 5739 5734 5729 5722 5709 5701 5687 5685 5679 5675 5666 5657 5650 5643 5636 5631 5629 5628 5627 5626 5626 5631 5634 5637 5638 5639 5642 5643 5643 5647 5652
5793 5792 5792 5786 5781 5776 5767 5759 5752 5752 5745 5739 5736 5731 5727 5719 5712 5703 5693 5684 5677 5668 5661 5653 5646 5639 5634 5629 5623 5620 5620 5621 5622 5624 5628 5631 5633 5636 5638 5640 5641 5643 5648
5790 5789 5785 5784 5778 5775 5769 5763 5755 5750 5739 5733 5731 5728 5724 5717 5706 5698 5690 5680 5670 5662 5656 5648 5641 5633 5628 5623 5616 5610 5607 5610 5617 5620 5624 5626 5628 5632 5634 5636 5640 5642 5645
5778 5782 5779 5776 5775 5771 5760 5751 5743 5738 5732 5725 5723 5720 5716 5711 5702 5695 5685 5675 5666 5658 5651 5644 5637 5630 5624 5618 5611 5604 5596 5598 5606 5615 5620 5623 5624 5628 5631 5635 5638 5640 5643
5780 5777 5775 5769 5768 5763 5758 5749 5742 5736 5728 5724 5724 5713 5708 5703 5696 5687 5678 5669 5660 5654 5646 5640 5635 5629 5622 5613 5605 5600 5598 5600 5602 5605 5610 5619 5621 5624 5628 5631 5636 5639 5642
5775 5774 5772 5766 5761 5756 5752 5746 5737 5729 5721 5718 5714 5706 5694 5690 5685 5678 5671 5663 5654 5648 5643 5638 5633 5627 5618 5610 5603 5597 5594 5596 5600 5601 5606 5613 5618 5622 5626 5630 5634 5637 5641
5768 5764 5760 5758 5752 5748 5745 5738 5733 5724 5715 5707 5701 5694 5687 5680 5674 5669 5663 5656 5652 5646 5642 5637 5632 5625 5617 5609 5603 5598 5598 5596 5598 5600 5601 5605 5612 5617 5624 5628 5631 5634 5637